User: anonymous   Login
Location: Unspecified
(0.0000°N, 0.0000°E)
Time: 07:07:15
(UTC+00:00)
Language:

USA 276 - Orbit

View from above orbital plane
View from above orbital plane
View from above satellite
View from above satellite

Ground track
Ground track

The orbit data is extracted from the following two-line orbital elements,

1 42689U 17022A   18034.71257916 0.00002000  00000-0  25869-4 0    04
2 42689  49.9999 277.9742 0011194  99.2045 260.7953 15.58135322    00
Epoch (UTC): 03 February 2018 17:06:06
Eccentricity: 0.0011194
inclination: 49.9999°
perigee height: 385 km
apogee height: 400 km
right ascension of ascending node: 277.9742°
argument of perigee: 99.2045°
revolutions per day: 15.58135322
mean anomaly at epoch: 260.7953°
orbit number at epoch: 0

The dashed part of the orbit path shows where the satellite is in the earth's shadow,  

DLR